User: anonymous   Login
Location: Unspecified
(0.0000°N, 0.0000°E)
Time: 08:55:04
(UTC+00:00)
Language:

Orbcomm A3 (FM07) - Orbit

View from above orbital plane
View from above orbital plane
View from above satellite
View from above satellite

Ground track
Ground track

The orbit data is extracted from the following two-line orbital elements,

1 25119U 97084H   19345.42785386 +.00000023 +00000-0 +53256-4 0  9991
2 25119 045.0156 242.5846 0001987 159.4441 200.6488 14.38964952150943
Epoch (UTC): 11 December 2019 10:16:06
Eccentricity: 0.0001987
inclination: 45.0156°
perigee height: 760 km
apogee height: 763 km
right ascension of ascending node: 242.5846°
argument of perigee: 159.4441°
revolutions per day: 14.38964952
mean anomaly at epoch: 200.6488°
orbit number at epoch: 15094

The dashed part of the orbit path shows where the satellite is in the earth's shadow,  

DLR